Time,TemperatureF,DewpointF,PressureIn,WindDirection,WindDirectionDegrees,WindSpeedMPH,WindSpeedGustMPH,Humidity,HourlyPrecipIn,Conditions,Clouds,dailyrainin,SoftwareType,DateUTC
2013-05-01 00:02:00,57.0,17.0,29.50,South,186,3.0,-999.0,21,-99.99,,,-99.99,,2013-05-01 06:02:00,
2013-05-01 00:11:00,57.0,17.0,29.50,South,186,3.0,-999.0,21,-99.99,,,-99.99,,2013-05-01 06:11:00,
2013-05-01 00:22:00,56.0,17.0,29.50,SSE,159,2.0,-999.0,21,-99.99,,,-99.99,,2013-05-01 06:22:00,
2013-05-01 00:32:00,56.0,18.0,29.50,West,260,1.0,-999.0,22,-99.99,,,-99.99,,2013-05-01 06:32:00,
2013-05-01 00:42:00,56.0,18.0,29.50,West,260,1.0,-999.0,22,-99.99,,,-99.99,,2013-05-01 06:42:00,
2013-05-01 00:51:00,55.0,17.0,29.50,South,188,3.0,-999.0,22,-99.99,,,-99.99,,2013-05-01 06:51:00,
2013-05-01 01:01:00,55.0,17.0,29.51,SSW,203,5.0,-999.0,22,-99.99,,,-99.99,,2013-05-01 07:01:00,
2013-05-01 01:11:00,55.0,17.0,29.51,SSW,203,5.0,-999.0,22,-99.99,,,-99.99,,2013-05-01 07:11:00,
2013-05-01 01:21:00,55.0,17.0,29.50,South,177,3.0,-999.0,22,-99.99,,,-99.99,,2013-05-01 07:21:00,
2013-05-01 01:32:00,54.0,16.0,29.51,SSE,162,3.0,-999.0,22,-99.99,,,-99.99,,2013-05-01 07:32:00,
2013-05-01 01:41:00,54.0,16.0,29.51,SSE,162,3.0,-999.0,22,-99.99,,,-99.99,,2013-05-01 07:41:00,
2013-05-01 01:52:00,54.0,16.0,29.51,SSE,155,3.0,-999.0,22,-99.99,,,-99.99,,2013-05-01 07:52:00,
2013-05-01 02:01:00,53.0,15.0,29.50,SSE,152,2.0,-999.0,22,-99.99,,,-99.99,,2013-05-01 08:01:00,
2013-05-01 02:11:00,53.0,15.0,29.50,SSE,152,2.0,-999.0,22,-99.99,,,-99.99,,2013-05-01 08:11:00,
2013-05-01 02:21:00,53.0,16.0,29.50,SSW,201,1.0,-999.0,23,-99.99,,,-99.99,,2013-05-01 08:21:00,
2013-05-01 02:31:00,52.0,15.0,29.50,SSE,148,1.0,-999.0,23,-99.99,,,-99.99,,2013-05-01 08:31:00,
2013-05-01 02:42:00,52.0,15.0,29.50,SSE,148,1.0,-999.0,23,-99.99,,,-99.99,,2013-05-01 08:42:00,
2013-05-01 02:52:00,52.0,15.0,29.50,SE,142,0.0,-999.0,23,-99.99,,,-99.99,,2013-05-01 08:52:00,
2013-05-01 03:01:00,52.0,15.0,29.50,SSW,205,2.0,-999.0,23,-99.99,,,-99.99,,2013-05-01 09:01:00,
2013-05-01 03:11:00,52.0,15.0,29.50,SSW,205,2.0,-999.0,23,-99.99,,,-99.99,,2013-05-01 09:11:00,
2013-05-01 03:21:00,51.0,16.0,29.50,South,182,0.0,-999.0,24,-99.99,,,-99.99,,2013-05-01 09:21:00,
2013-05-01 03:33:00,50.0,15.0,29.51,East,84,1.0,-999.0,24,-99.99,,,-99.99,,2013-05-01 09:33:00,
2013-05-01 03:42:00,50.0,15.0,29.51,East,84,1.0,-999.0,24,-99.99,,,-99.99,,2013-05-01 09:42:00,
2013-05-01 03:52:00,48.0,16.0,29.51,NE,46,0.0,-999.0,28,-99.99,,,-99.99,,2013-05-01 09:52:00,
2013-05-01 04:02:00,46.0,16.0,29.51,NE,46,0.0,-999.0,29,-99.99,,,-99.99,,2013-05-01 10:02:00,
2013-05-01 04:12:00,46.0,16.0,29.51,NE,46,0.0,-999.0,29,-99.99,,,-99.99,,2013-05-01 10:12:00,
2013-05-01 04:22:00,47.0,16.0,29.52,NNE,16,1.0,-999.0,28,-99.99,,,-99.99,,2013-05-01 10:22:00,
2013-05-01 04:32:00,46.0,15.0,29.52,West,272,1.0,-999.0,28,-99.99,,,-99.99,,2013-05-01 10:32:00,
2013-05-01 04:42:00,46.0,15.0,29.52,West,272,1.0,-999.0,28,-99.99,,,-99.99,,2013-05-01 10:42:00,
2013-05-01 04:52:00,45.0,15.0,29.52,West,272,0.0,-999.0,29,-99.99,,,-99.99,,2013-05-01 10:52:00,
2013-05-01 05:02:00,45.0,16.0,29.52,West,272,0.0,-999.0,31,-99.99,,,-99.99,,2013-05-01 11:02:00,
2013-05-01 05:11:00,45.0,16.0,29.52,West,272,0.0,-999.0,31,-99.99,,,-99.99,,2013-05-01 11:11:00,
2013-05-01 05:21:00,44.0,16.0,29.53,West,272,0.0,-999.0,32,-99.99,,,-99.99,,2013-05-01 11:21:00,
2013-05-01 05:32:00,45.0,17.0,29.54,West,272,0.0,-999.0,32,-99.99,,,-99.99,,2013-05-01 11:32:00,
2013-05-01 05:42:00,45.0,17.0,29.54,West,272,0.0,-999.0,32,-99.99,,,-99.99,,2013-05-01 11:42:00,
2013-05-01 05:51:00,45.0,15.0,29.54,West,272,0.0,-999.0,30,-99.99,,,-99.99,,2013-05-01 11:51:00,
2013-05-01 06:01:00,45.0,18.0,29.54,West,272,0.0,-999.0,33,-99.99,,,-99.99,,2013-05-01 12:01:00,
2013-05-01 06:11:00,45.0,17.0,29.54,West,275,0.0,-999.0,32,-99.99,,,-99.99,,2013-05-01 12:11:00,
2013-05-01 06:21:00,45.0,17.0,29.54,West,275,0.0,-999.0,32,-99.99,,,-99.99,,2013-05-01 12:21:00,
2013-05-01 06:31:00,45.0,18.0,29.55,West,275,0.0,-999.0,33,-99.99,,,-99.99,,2013-05-01 12:31:00,
2013-05-01 06:41:00,45.0,18.0,29.55,West,275,0.0,-999.0,33,-99.99,,,-99.99,,2013-05-01 12:41:00,
2013-05-01 06:51:00,44.0,17.0,29.55,West,275,0.0,-999.0,33,-99.99,,,-99.99,,2013-05-01 12:51:00,
2013-05-01 07:01:00,44.0,17.0,29.57,West,275,0.0,-999.0,34,-99.99,,,-99.99,,2013-05-01 13:01:00,
2013-05-01 07:11:00,44.0,17.0,29.57,West,275,0.0,-999.0,34,-99.99,,,-99.99,,2013-05-01 13:11:00,
2013-05-01 07:21:00,43.0,17.0,29.57,West,275,0.0,-999.0,34,-99.99,,,-99.99,,2013-05-01 13:21:00,
2013-05-01 07:31:00,43.0,17.0,29.58,West,275,0.0,-999.0,35,-99.99,,,-99.99,,2013-05-01 13:31:00,
2013-05-01 07:42:00,43.0,17.0,29.58,West,275,0.0,-999.0,35,-99.99,,,-99.99,,2013-05-01 13:42:00,
2013-05-01 07:52:00,43.0,20.0,29.59,West,275,0.0,-999.0,39,-99.99,,,-99.99,,2013-05-01 13:52:00,
2013-05-01 08:02:00,43.0,19.0,29.59,West,275,0.0,-999.0,37,-99.99,,,-99.99,,2013-05-01 14:02:00,
2013-05-01 08:11:00,43.0,19.0,29.59,West,275,0.0,-999.0,37,-99.99,,,-99.99,,2013-05-01 14:11:00,
2013-05-01 08:31:00,48.0,21.0,29.60,ESE,120,0.0,-999.0,34,-99.99,,,-99.99,,2013-05-01 14:31:00,
2013-05-01 08:41:00,48.0,21.0,29.60,ESE,120,0.0,-999.0,34,-99.99,,,-99.99,,2013-05-01 14:41:00,
2013-05-01 08:51:00,49.0,22.0,29.59,SE,132,0.0,-999.0,34,-99.99,,,-99.99,,2013-05-01 14:51:00,
2013-05-01 09:01:00,50.0,23.0,29.59,South,175,1.0,-999.0,34,-99.99,,,-99.99,,2013-05-01 15:01:00,
2013-05-01 09:11:00,50.0,23.0,29.59,South,175,1.0,-999.0,34,-99.99,,,-99.99,,2013-05-01 15:11:00,
2013-05-01 09:21:00,50.0,23.0,29.60,South,184,3.0,-999.0,34,-99.99,,,-99.99,,2013-05-01 15:21:00,
2013-05-01 09:33:00,51.0,24.0,29.60,South,174,4.0,-999.0,34,-99.99,,,-99.99,,2013-05-01 15:33:00,
2013-05-01 09:42:00,51.0,24.0,29.60,South,174,4.0,-999.0,34,-99.99,,,-99.99,,2013-05-01 15:42:00,
2013-05-01 09:52:00,51.0,24.0,29.60,SSE,167,4.0,-999.0,35,-99.99,,,-99.99,,2013-05-01 15:52:00,
2013-05-01 10:03:00,52.0,25.0,29.60,SW,214,4.0,-999.0,34,-99.99,,,-99.99,,2013-05-01 16:03:00,
2013-05-01 10:12:00,52.0,25.0,29.60,SW,214,4.0,-999.0,34,-99.99,,,-99.99,,2013-05-01 16:12:00,
2013-05-01 10:22:00,53.0,26.0,29.60,SSW,202,3.0,-999.0,35,-99.99,,,-99.99,,2013-05-01 16:22:00,
2013-05-01 10:31:00,53.0,25.0,29.60,South,189,3.0,-999.0,34,-99.99,,,-99.99,,2013-05-01 16:31:00,
2013-05-01 10:42:00,53.0,25.0,29.60,South,189,3.0,-999.0,34,-99.99,,,-99.99,,2013-05-01 16:42:00,
2013-05-01 10:53:00,54.0,28.0,29.60,SSE,163,3.0,-999.0,36,-99.99,,,-99.99,,2013-05-01 16:53:00,
2013-05-01 11:02:00,53.0,25.0,29.60,ENE,61,2.0,-999.0,33,-99.99,,,-99.99,,2013-05-01 17:02:00,
2013-05-01 11:12:00,53.0,25.0,29.60,ENE,61,2.0,-999.0,33,-99.99,,,-99.99,,2013-05-01 17:12:00,
2013-05-01 11:21:00,54.0,26.0,29.59,West,275,2.0,-999.0,33,-99.99,,,-99.99,,2013-05-01 17:21:00,
2013-05-01 11:31:00,55.0,25.0,29.60,SSW,213,4.0,-999.0,31,-99.99,,,-99.99,,2013-05-01 17:31:00,
2013-05-01 11:42:00,55.0,25.0,29.60,SSW,213,4.0,-999.0,31,-99.99,,,-99.99,,2013-05-01 17:42:00,
2013-05-01 11:52:00,56.0,25.0,29.60,SSE,159,7.0,-999.0,30,-99.99,,,-99.99,,2013-05-01 17:52:00,
2013-05-01 12:01:00,56.0,24.0,29.59,South,187,7.0,-999.0,29,-99.99,,,-99.99,,2013-05-01 18:01:00,
2013-05-01 12:11:00,56.0,24.0,29.59,South,187,7.0,-999.0,29,-99.99,,,-99.99,,2013-05-01 18:11:00,
2013-05-01 12:22:00,56.0,25.0,29.59,NNW,327,9.0,-999.0,30,-99.99,,,-99.99,,2013-05-01 18:22:00,
2013-05-01 12:32:00,56.0,23.0,29.59,WSW,257,8.0,-999.0,28,-99.99,,,-99.99,,2013-05-01 18:32:00,
2013-05-01 12:41:00,56.0,23.0,29.59,WSW,257,8.0,-999.0,28,-99.99,,,-99.99,,2013-05-01 18:41:00,
2013-05-01 12:52:00,56.0,20.0,29.60,SSW,199,8.0,-999.0,24,-99.99,,,-99.99,,2013-05-01 18:52:00,
2013-05-01 13:01:00,56.0,19.0,29.59,SW,214,8.0,-999.0,23,-99.99,,,-99.99,,2013-05-01 19:01:00,
2013-05-01 13:11:00,56.0,19.0,29.59,SW,214,8.0,-999.0,23,-99.99,,,-99.99,,2013-05-01 19:11:00,
2013-05-01 13:22:00,56.0,16.0,29.60,NW,319,9.0,-999.0,20,-99.99,,,-99.99,,2013-05-01 19:22:00,
2013-05-01 13:32:00,56.0,16.0,29.60,South,190,9.0,-999.0,20,-99.99,,,-99.99,,2013-05-01 19:32:00,
2013-05-01 13:42:00,56.0,16.0,29.60,South,190,9.0,-999.0,20,-99.99,,,-99.99,,2013-05-01 19:42:00,
2013-05-01 13:52:00,56.0,13.0,29.61,ENE,61,8.0,-999.0,18,-99.99,,,-99.99,,2013-05-01 19:52:00,
2013-05-01 14:01:00,55.0,11.0,29.62,SSW,198,11.0,-999.0,17,-99.99,,,-99.99,,2013-05-01 20:01:00,
2013-05-01 14:11:00,55.0,11.0,29.62,SSW,198,11.0,-999.0,17,-99.99,,,-99.99,,2013-05-01 20:11:00,
2013-05-01 14:21:00,55.0,11.0,29.63,SW,227,9.0,-999.0,17,-99.99,,,-99.99,,2013-05-01 20:21:00,
2013-05-01 14:31:00,55.0,12.0,29.62,South,185,10.0,-999.0,18,-99.99,,,-99.99,,2013-05-01 20:31:00,
2013-05-01 14:42:00,55.0,12.0,29.62,South,185,10.0,-999.0,18,-99.99,,,-99.99,,2013-05-01 20:42:00,
2013-05-01 14:52:00,55.0,11.0,29.64,WSW,258,8.0,-999.0,17,-99.99,,,-99.99,,2013-05-01 20:52:00,
2013-05-01 15:01:00,54.0,11.0,29.64,WNW,288,10.0,-999.0,18,-99.99,,,-99.99,,2013-05-01 21:01:00,
2013-05-01 15:11:00,54.0,11.0,29.64,WNW,288,10.0,-999.0,18,-99.99,,,-99.99,,2013-05-01 21:11:00,
2013-05-01 15:21:00,55.0,14.0,29.65,SE,144,9.0,-999.0,19,-99.99,,,-99.99,,2013-05-01 21:21:00,
2013-05-01 15:32:00,54.0,14.0,29.65,South,179,11.0,-999.0,20,-99.99,,,-99.99,,2013-05-01 21:32:00,
2013-05-01 15:43:00,54.0,14.0,29.65,South,179,11.0,-999.0,20,-99.99,,,-99.99,,2013-05-01 21:43:00,
2013-05-01 16:03:00,54.0,15.0,29.66,SW,221,9.0,-999.0,21,-99.99,,,-99.99,,2013-05-01 22:03:00,
2013-05-01 16:32:00,53.0,13.0,29.66,East,83,9.0,-999.0,20,-99.99,,,-99.99,,2013-05-01 22:32:00,
2013-05-01 16:52:00,52.0,12.0,29.65,WNW,295,9.0,-999.0,20,-99.99,,,-99.99,,2013-05-01 22:52:00,
2013-05-01 17:01:00,52.0,11.0,29.67,SSW,192,8.0,-999.0,19,-99.99,,,-99.99,,2013-05-01 23:01:00,
2013-05-01 17:21:00,52.0,9.0,29.67,West,277,9.0,-999.0,17,-99.99,,,-99.99,,2013-05-01 23:21:00,
2013-05-01 17:32:00,52.0,7.0,29.69,SSE,167,8.0,-999.0,16,-99.99,,,-99.99,,2013-05-01 23:32:00,
2013-05-01 17:42:00,52.0,7.0,29.69,SSE,167,8.0,-999.0,16,-99.99,,,-99.99,,2013-05-01 23:42:00,
2013-05-01 17:52:00,51.0,6.0,29.70,SE,135,7.0,-999.0,16,-99.99,,,-99.99,,2013-05-01 23:52:00,
2013-05-01 18:01:00,51.0,8.0,29.71,WNW,302,7.0,-999.0,17,-99.99,,,-99.99,,2013-05-02 00:01:00,
2013-05-01 18:21:00,50.0,6.0,29.72,SSE,163,9.0,-999.0,16,-99.99,,,-99.99,,2013-05-02 00:21:00,
2013-05-01 18:32:00,49.0,3.0,29.73,North,360,10.0,-999.0,15,-99.99,,,-99.99,,2013-05-02 00:32:00,
2013-05-01 18:41:00,49.0,3.0,29.73,North,360,10.0,-999.0,15,-99.99,,,-99.99,,2013-05-02 00:41:00,
2013-05-01 18:52:00,48.0,4.0,29.76,WNW,287,6.0,-999.0,16,-99.99,,,-99.99,,2013-05-02 00:52:00,
2013-05-01 19:01:00,47.0,2.0,29.76,WNW,302,5.0,-999.0,15,-99.99,,,-99.99,,2013-05-02 01:01:00,
2013-05-01 19:32:00,44.0,-1.0,29.77,NW,304,4.0,-999.0,15,-99.99,,,-99.99,,2013-05-02 01:32:00,
2013-05-01 19:42:00,44.0,-1.0,29.77,NW,304,4.0,-999.0,15,-99.99,,,-99.99,,2013-05-02 01:42:00,
2013-05-01 19:52:00,43.0,-1.0,29.79,WSW,242,2.0,-999.0,15,-99.99,,,-99.99,,2013-05-02 01:52:00,
2013-05-01 20:01:00,42.0,-2.0,29.80,SW,234,3.0,-999.0,15,-99.99,,,-99.99,,2013-05-02 02:01:00,
2013-05-01 20:21:00,41.0,-2.0,29.81,NNW,329,0.0,-999.0,16,-99.99,,,-99.99,,2013-05-02 02:21:00,
2013-05-01 20:31:00,40.0,-1.0,29.82,WNW,289,1.0,-999.0,17,-99.99,,,-99.99,,2013-05-02 02:31:00,
2013-05-01 20:42:00,40.0,-1.0,29.82,WNW,289,1.0,-999.0,17,-99.99,,,-99.99,,2013-05-02 02:42:00,
2013-05-01 20:51:00,40.0,-1.0,29.82,WNW,289,1.0,-999.0,17,-99.99,,,-99.99,,2013-05-02 02:51:00,
2013-05-01 21:01:00,38.0,-2.0,29.84,WNW,288,0.0,-999.0,18,-99.99,,,-99.99,,2013-05-02 03:01:00,
2013-05-01 21:21:00,37.0,-1.0,29.85,WNW,288,0.0,-999.0,19,-99.99,,,-99.99,,2013-05-02 03:21:00,
2013-05-01 21:32:00,36.0,0.0,29.86,WNW,287,2.0,-999.0,21,-99.99,,,-99.99,,2013-05-02 03:32:00,
2013-05-01 21:52:00,37.0,1.0,29.87,WNW,292,2.0,-999.0,21,-99.99,,,-99.99,,2013-05-02 03:52:00,
2013-05-01 22:03:00,36.0,4.0,29.89,WNW,298,2.0,-999.0,25,-99.99,,,-99.99,,2013-05-02 04:03:00,
2013-05-01 22:22:00,37.0,7.0,29.90,NW,311,4.0,-999.0,28,-99.99,,,-99.99,,2013-05-02 04:22:00,
2013-05-01 22:33:00,37.0,7.0,29.92,WNW,295,2.0,-999.0,28,-99.99,,,-99.99,,2013-05-02 04:33:00,
2013-05-01 22:52:00,36.0,6.0,29.94,ESE,114,1.0,-999.0,28,-99.99,,,-99.99,,2013-05-02 04:52:00,
2013-05-01 23:02:00,36.0,7.0,29.95,WNW,300,1.0,-999.0,29,-99.99,,,-99.99,,2013-05-02 05:02:00,
2013-05-01 23:22:00,36.0,8.0,29.96,SW,222,2.0,-999.0,30,-99.99,,,-99.99,,2013-05-02 05:22:00,
2013-05-01 23:32:00,35.0,7.0,29.96,NE,56,2.0,-999.0,30,-99.99,,,-99.99,,2013-05-02 05:32:00,
2013-05-01 23:42:00,35.0,7.0,29.96,NE,56,2.0,-999.0,30,-99.99,,,-99.99,,2013-05-02 05:42:00,
2013-05-01 23:51:00,35.0,7.0,29.97,WSW,238,1.0,-999.0,31,-99.99,,,-99.99,,2013-05-02 05:51:00,